Location: Chomutov
(50.4500°N, 13.4333°E)
Time: 17:15:36
(UTC+02:00)

FO-29 - Pass Details

Date: 03 October 2021
Orbit: 800 x 1321 km, 98.6° (Epoch: 23 October)

Event Time Altitude Azimuth Distance (km) Brightness Sun altitude
Exits shadow 22:36:54 34° 229° (SW) 2,026 11.0 -35.5°
Maximum altitude 22:39:15 42° 266° (W) 1,817 11.0 -35.8°
Drops below altitude 10° 22:46:35 10° 335° (NNW) 3,321 13.0 -36.6°
Sets 22:49:29 0° 343° (NNW) 4,257 13.7 -36.9°
